カタログに戻る

STARLINK-32392

運用中通信VLEO
NORAD 61214·PAYLOAD·🇺🇸 United States

打ち上げ Sep 20, 2024 から Vandenberg Space Force Base

Loading…

次のパス (今後24時間)

TLE

最新Source: CelesTrak SupGP

元期: Sep 14, 2026, 20:58 UTC

1 61214C 24171Q   26257.87409722 -.00027450  00000+0 -81070-3 0  2575
2 61214  53.1579 159.8361 0001304 101.0172  56.9484 15.34416510    16

AllMySatでSTARLINK-32392をリアルタイム追跡

Download on the App Store